Location: Del Amo
(33.8464°N, 118.2104°W)
Time: 02:39:05
(UTC+00:00)

SR - Pass Details

Date: 22 September 2024
Orbit: 578 x 855 km, 66.7° (Epoch: 02 October)

Event Time Altitude Azimuth Distance (km) Brightness Sun altitude
Rises 06:06:19 0° 307° (NW) 3,072 ? -48.8°
Enters shadow 06:06:54 - 304° (WNW) 2,898 ? -48.9°
Reaches altitude 10° 06:09:59 10° 278° (W) 2,219 - -49.3°
Maximum altitude 06:12:02 12° 254° (WSW) 2,087 - -49.6°
Drops below altitude 10° 06:14:09 10° 230° (SW) 2,288 - -49.9°
Sets 06:18:05 0° 202° (SSW) 3,276 - -50.3°
